Regional Weather Roundup
Issued by NWS

Home | Current Version | Previous Version | Text Only | Print | Product List | Glossary Off
Versions: 1 2 3 4 5 6 7 8 9 10 11 12 13 14 15 16 17 18 19 20 21 22 23 24 25 26 27 28 29 30 31 32 33 34 35 36 37 38 39 40 41 42 43 44 45 46 47 48 49 50

000
ASUS43 KMKX 232321
RWRWI

WISCONSIN REGIONAL WEATHER ROUNDUP
NATIONAL WEATHER SERVICE MILWAUKEE/SULLIVAN WI
600 PM CDT THU MAR 23 2017

NOTE: "FAIR" INDICATES FEW OR NO CLOUDS BELOW 12,000 FEET WITH NO
SIGNIFICANT WEATHER AND/OR OBSTRUCTIONS TO VISIBILITY.

WIZ001-002-006>008-014>016-023>028-240000-
NORTHWEST WISCONSIN

CITY           SKY/WX    TMP DP  RH WIND       PRES   REMARKS
SUPERIOR ARPT  CLOUDY    37  26  64 S5        29.92F WCI  33
ASHLAND        CLOUDY    38  27  64 CALM      29.94F
HAYWARD        LGT RAIN  38  26  62 CALM      29.91R
SIREN          CLOUDY    36  30  80 CALM      29.88F
CUMBERLAND     DRIZZLE   37  25  60 S13G18    29.86F WCI  29
RICE LAKE      CLOUDY    39  25  58 SE14G22   29.88F WCI  31
CHETEK         DRIZZLE   38  26  62 SE10G16   29.88F WCI  32
LADYSMITH      CLOUDY    38  24  56 SE17G24   29.86F WCI  29
EAU CLAIRE     CLOUDY    42  24  49 SE12      29.91F
MENOMONIE      CLOUDY    42  27  55 SE10      29.91F
NEW RICHMOND   CLOUDY    40  26  57 S15G21    29.88R WCI  31
OSCEOLA        CLOUDY    40  28  60 S16       29.89R WCI  32
$$

WIZ003>005-009-010-017-018-240000-
NORTH CENTRAL WISCONSIN

CITY           SKY/WX    TMP DP  RH WIND       PRES   REMARKS
MANITOWISH WTR DRIZZLE   34  23  64 SE10G17   29.84F WCI  26
ARBOR VITAE    LGT RAIN  37  29  74 SE14      29.86F WCI  28
WOODRUFF       LGT RAIN  37  29  74 SE14      29.86F WCI  28
RHINELANDER    LGT RAIN  38  23  55 S7        29.99R WCI  33
EAGLE RIVER    RAIN      35  21  56 S9        29.99R WCI  28
LAND O LAKES   CLOUDY    36  20  52 S8G20     29.97S WCI  30
PHILLIPS       CLOUDY    35  26  69 S14G22    29.88F WCI  26
TOMAHAWK       LGT RAIN  37  21  52 S3        29.98R
MEDFORD        CLOUDY    36  24  60 SE8       29.95F WCI  30
MERRILL        LGT RAIN  38  21  49 S5        30.00R WCI  35
$$

WIZ029-030-035-036-043>047-240000-
CENTRAL WISCONSIN

CITY           SKY/WX    TMP DP  RH WIND       PRES   REMARKS
WAUSAU         CLOUDY    39  21  48 S7        30.00R WCI  34
MOSINEE        CLOUDY    39  21  48 S9        30.01R WCI  33
MARSHFIELD     LGT RAIN  39  23  52 SE12      29.94F WCI  32
STEVENS POINT  CLOUDY    39  21  48 S5        30.04R
WAUPACA        CLOUDY    41  28  58 E13G20    29.97S
WAUTOMA        CLOUDY    45  21  39 S8        30.03R
WISC RAPIDS    CLOUDY    43  22  43 S5        30.03R
CAMP DOUGLAS   MIX PCPN  45  25  45 SW7       30.01R
$$

WIZ011>013-019>022-031-037>040-048>050-240000-
NORTHEAST WISCONSIN

CITY           SKY/WX    TMP DP  RH WIND       PRES   REMARKS
ANTIGO         CLOUDY    36  24  61 SE7       29.99R WCI  30
SHAWANO        CLOUDY    39  27  62 SE13      30.01F WCI  31
OCONTO         CLOUDY    34  26  71 SE10      30.04F WCI  26
STURGEON BAY   CLOUDY    35  25  66 S17G23    30.07F WCI  25
GREEN BAY      CLOUDY    37  28  70 SE16      30.01F WCI  28
MANITOWOC      CLOUDY    36  27  69 SE17G25   30.06F WCI  26
APPLETON       CLOUDY    37  25  60 SE14G23   29.98F WCI  29
CLINTONVILLE   CLOUDY    39  27  60 SE13      29.99F WCI  32
OSHKOSH        PTSUNNY   38  27  64 SE17      29.95F WCI  28
$$

WIZ032>034-041-042-053>061-240000-
SOUTHWEST WISCONSIN

CITY           SKY/WX    TMP DP  RH WIND       PRES   REMARKS
LA CROSSE      TSTM      41  35  79 S7        29.98R
SPARTA         CLOUDY    43  29  58 SW5       30.02R
VIROQUA        CLOUDY    38  33  80 S5        29.96R WCI  35
BOSCOBEL       LGT RAIN  40  33  76 VRB3      29.97F
PRAIRIE DU CHI DRIZZLE   37  36  96 SE5       29.96R WCI  33
PLATTEVILLE    CLOUDY    39  32  74 SE17      29.93F WCI  30
$$

WIZ056-057-062-063-064-067-068-240000-
SOUTH CENTRAL WISCONSIN

CITY           SKY/WX    TMP DP  RH WIND       PRES   REMARKS
REEDSBURG      CLOUDY    42  25  50 S13G24    29.99R
BARABOO/DELLS  CLOUDY    42  22  45 S13G18    29.98R
LONE ROCK      TSTM      41  30  65 VRB7      30.01R
MINERAL POINT  MIX PCPN  37  32  81 SE24G36   29.92F VSB 1/2 WCI  26
MADISON        CLOUDY    43  20  39 S20G35    29.92F
MIDDLETON      CLOUDY    43  23  44 S16G33    29.96F
WATERTOWN      CLOUDY    44  22  42 SE20G26   29.94F
MONROE         CLOUDY    41  27  56 S20G28    29.99F
JANESVILLE     CLOUDY    46  23  39 SE14      30.02F
$$

WIZ051-052-058>065-066-070>072-240000-
SOUTHEAST WISCONSIN

CITY           SKY/WX    TMP DP  RH WIND       PRES   REMARKS
MILWAUKEE      CLOUDY    41  27  57 SE14      30.12F
WAUKESHA       CLOUDY    37  23  56 SE14      30.11F WCI  29
MILWAUKEE/TIMM CLOUDY    39  21  48 SE14      30.12F WCI  31
RACINE         CLOUDY    40  28  62 S12G22    30.13F WCI  33
KENOSHA        CLOUDY    42  27  55 SE14      30.11F
FOND DU LAC    CLOUDY    40  26  57 SE23G29   29.95F WCI  30
SHEBOYGAN      CLOUDY    36  26  67 SE15G23   30.07F WCI  27
WEST BEND      CLOUDY    37  27  65 SE14      30.03F WCI  29
JUNEAU         CLOUDY    41  27  56 SE17      29.94F
$$

LSZ147-162-240000-
LAKE SUPERIOR

STATION/POSITION TIME  TEMP    WIND        PRES    WAVE
                       AIR SEA DIR/SP/G            HT/PER
                 (UTC) (F)     (DEG/KT/KT) (MB)    (FT/S)
DEVILS ISLAND    2300   35     330/  2/  2 1015.2F
PORT WING        2300   37      CALM  /  5 1014.2
SAXON HARBOR     2240   41      60/  3/  8 1011.9F
$$

LMZ867-665-643>646-240000-
LAKE MICHIGAN

STATION/POSITION TIME  TEMP    WIND        PRES    WAVE
                       AIR SEA DIR/SP/G            HT/PER
                 (UTC) (F)     (DEG/KT/KT) (MB)    (FT/S)
CHAMBERS ISLAND  2240   35     160/  7/ 13 1018.3F
NORTHPORT PIER   2230   36     160/ 10/ 17 1019.6F
SISTER BAY       2035   34     190/ 20/ 28   N/A
KEWAUNEE LAKESHO 2254   36     170/ 20/ 24 1018.7F
SHEBOYGAN LAKESH 2300   36     160/ 20/ 22 1018.6F
PORT WASHINGTON  2230   37     170/ 11/ 16 1021.0F
MILWAUKEE LAKESH 2250   37     160/ 13/ 14   N/A
KENOSHA   LAKESH 2300   39     150/ 16/ 19 1019.6
$$

TC  - TEMPERATURE IN CELSIUS
VSB - VISIBILITY IN STATUTE MILES
WCI - WIND CHILL INDEX
HX  - HEAT INDEX




USA.gov is the U.S. government's official web portal to all federal, state and local government web resources and services.